KS8S Weather Reports


time (UTC)temp
C
wind
direction
speed
KPH
gust
KPH
rain 1hr
cm
rain 24hr
cm
rain mn
cm
humidity
%
barometer
mb
20260903024524 23 209 1.6 3.2 0.00 0.00 0.00 90 1014.4
20260903023021 24 209 1.6 3.2 0.00 0.00 0.00 89 1014.4
20260903021513 24 209 3.2 4.8 0.00 0.00 0.00 89 1014.4
20260903020020 24 209 3.2 4.8 0.00 0.00 0.00 88 1014.5
20260903014529 25 209 1.6 3.2 0.00 0.00 0.00 87 1014.3
20260903013029 25 209 1.6 1.6 0.00 0.00 0.00 85 1014.4
20260903011525 26 209 3.2 4.8 0.00 0.00 0.00 84 1014.4
20260903010026 26 228 3.2 6.4 0.00 0.00 0.00 83 1014.1
20260903004520 27 228 4.8 8.0 0.00 0.00 0.00 82 1014.0
20260903003013 27 208 8.0 9.7 0.00 0.00 0.00 81 1013.9
20260903001534 27 213 6.4 11.3 0.00 0.00 0.00 80 1013.9
20260903000040 28 222 8.0 9.7 0.00 0.00 0.00 79 1014.0
20260902234529 28 215 6.4 9.7 0.00 0.00 0.00 78 1014.0
20260902233027 29 223 6.4 11.3 0.00 0.00 0.00 77 1014.0
20260902231525 30 219 6.4 11.3 0.00 0.00 0.00 76 1014.0
20260902230019 30 213 6.4 9.7 0.00 0.00 0.00 75 1014.0
20260902224538 30 219 6.4 11.3 0.00 0.00 0.00 75 1014.1
20260902223050 30 217 9.7 14.5 0.00 0.00 0.00 71 1014.2
20260902221533 31 229 11.3 19.3 0.00 0.00 0.00 71 1014.1
20260902220004 31 227 11.3 16.1 0.00 0.00 0.00 70 1014.1
20260902214504 31 219 12.9 19.3 0.00 0.00 0.00 69 1014.2
20260902213006 31 215 14.5 20.9 0.00 0.00 0.00 68 1014.4
20260902211510 31 217 14.5 22.5 0.00 0.00 0.00 68 1014.4
20260902210007 31 238 12.9 19.3 0.00 0.00 0.00 66 1014.4
20260902204508 31 205 14.5 22.5 0.00 0.00 0.00 65 1014.6
20260902203010 31 219 17.7 25.7 0.00 0.00 0.00 67 1014.7
20260902201506 31 238 17.7 25.7 0.00 0.00 0.00 67 1014.8
20260902200008 31 226 16.1 22.5 0.00 0.00 0.00 65 1015.0
20260902194507 31 244 12.9 22.5 0.00 0.00 0.00 67 1015.1
20260902193008 31 217 16.1 24.1 0.00 0.00 0.00 66 1015.3
20260902191509 32 204 9.7 19.3 0.00 0.00 0.00 69 1015.3
20260902190009 32 218 14.5 20.9 0.00 0.00 0.00 66 1015.5
20260902184509 31 242 12.9 20.9 0.00 0.05 0.00 67 1015.6
20260902183032 31 220 9.7 22.5 0.00 0.05 0.00 71 1015.8
20260902181511 31 231 16.1 22.5 0.00 0.05 0.00 69 1015.9
20260902180012 31 223 12.9 19.3 0.00 0.05 0.00 69 1016.0
20260902174518 31 240 12.9 19.3 0.00 0.05 0.00 68 1016.2
20260902173024 31 190 12.9 16.1 0.00 0.05 0.00 70 1016.4
20260902171512 31 246 11.3 17.7 0.00 0.05 0.00 71 1016.5
20260902170013 31 227 9.7 16.1 0.00 0.05 0.00 72 1016.5
20260902164522 30 244 12.9 17.7 0.00 0.05 0.00 71 1016.7
20260902163013 30 225 9.7 16.1 0.00 0.05 0.00 75 1017.0
20260902161516 29 247 8.0 17.7 0.00 0.05 0.00 76 1017.1
20260902160019 29 217 9.7 17.7 0.00 0.05 0.00 76 1017.1
20260902154517 30 233 14.5 19.3 0.00 0.05 0.00 72 1017.0
20260902153021 29 238 11.3 17.7 0.00 0.05 0.00 75 1017.0
20260902151518 28 250 11.3 19.3 0.00 0.05 0.00 75 1017.0
20260902150021 28 240 9.7 19.3 0.00 0.05 0.00 77 1017.0
20260902144520 28 254 11.3 19.3 0.00 0.05 0.00 78 1016.7
20260902143021 27 227 9.7 17.7 0.00 0.05 0.00 81 1016.7
20260902141519 27 226 14.5 19.3 0.00 0.05 0.00 80 1016.6
20260902140025 26 241 11.3 17.7 0.00 0.05 0.00 83 1016.5
20260902134520 26 240 12.9 17.7 0.00 0.05 0.00 84 1016.6
20260902133027 26 225 9.7 14.5 0.00 0.05 0.00 85 1016.6
20260902131524 25 219 9.7 14.5 0.00 0.05 0.00 86 1016.5
20260902130008 24 228 6.4 11.3 0.00 0.81 0.00 88 1016.6
20260902124505 23 221 6.4 9.7 0.00 1.30 0.00 90 1016.5
20260902123004 23 209 4.8 6.4 0.00 1.45 0.00 91 1016.7
20260902121521 22 225 4.8 8.0 0.00 1.78 0.00 92 1016.7
20260902120019 22 221 3.2 6.4 0.00 1.78 0.00 93 1016.7
20260902114511 21 221 3.2 6.4 0.00 1.78 0.00 93 1016.6
20260902113012 21 221 3.2 3.2 0.00 1.78 0.00 93 1016.6
20260902111507 21 221 3.2 4.8 0.00 1.78 0.00 93 1016.5
20260902110014 21 221 1.6 3.2 0.00 1.78 0.00 92 1016.4
20260902104549 21 221 1.6 3.2 0.00 1.78 0.00 92 1016.4
20260902103044 22 221 1.6 3.2 0.00 1.78 0.00 91 1016.2
20260902101516 22 221 0.0 1.6 0.00 1.78 0.00 92 1016.1
20260902100013 22 221 1.6 1.6 0.00 1.78 0.00 91 1016.2
20260902094510 22 221 0.0 1.6 0.00 1.78 0.00 91 1016.1
20260902093009 22 221 0.0 4.8 0.00 1.78 0.00 90 1015.9
20260902091506 23 221 3.2 6.4 0.00 1.78 0.00 90 1016.0
20260902090035 23 222 4.8 8.0 0.00 1.78 0.00 90 1015.9
20260902084534 23 248 1.6 6.4 0.00 1.78 0.00 90 1016.0
20260902083020 23 229 4.8 12.9 0.00 1.78 0.00 90 1015.8
20260902081514 23 226 6.4 12.9 0.00 1.78 0.00 90 1015.6
20260902080015 23 217 6.4 11.3 0.00 1.78 0.00 90 1015.6
20260902074509 23 224 4.8 6.4 0.00 1.78 0.00 91 1015.5
20260902073030 23 224 1.6 3.2 0.00 1.78 0.00 91 1015.5
20260902071524 23 224 0.0 3.2 0.00 1.78 0.00 90 1015.5
20260902070025 23 224 3.2 6.4 0.00 1.78 0.00 90 1015.4
20260902064522 23 230 3.2 4.8 0.00 1.78 0.00 90 1015.4
20260902063037 23 230 3.2 6.4 0.00 1.78 0.00 90 1015.6
20260902061514 23 223 3.2 6.4 0.00 1.78 0.00 90 1015.6
20260902060039 23 228 3.2 6.4 0.00 1.78 0.00 90 1015.7
20260902054534 24 229 8.0 9.7 0.00 1.78 0.00 90 1015.8
20260902053032 24 231 6.4 11.3 0.00 1.78 0.00 90 1015.7
20260902051529 24 237 4.8 8.0 0.00 1.78 0.00 90 1015.8
20260902050024 24 235 4.8 9.7 0.00 1.78 0.00 89 1015.7
20260902044526 25 232 6.4 9.7 0.00 1.78 0.00 89 1015.5
20260902043036 25 232 6.4 9.7 0.00 1.78 0.00 89 1015.5
20260902041539 25 236 9.7 12.9 0.00 1.78 0.00 89 1015.3
20260902040035 25 236 8.0 14.5 0.00 1.78 0.00 88 1015.2
20260902034530 25 221 6.4 8.0 0.00 1.78 1.78 90 1015.1
20260902033024 24 216 6.4 9.7 0.00 1.78 1.78 91 1015.0
20260902031539 23 213 6.4 8.0 0.00 1.78 1.78 92 1015.0
20260902030034 23 219 4.8 4.8 0.00 1.78 1.78 90 1015.2